• MPC Preparation (Info)

  • MPEC 2019-A161: 2019 AV7

    The following Minor Planet Electronic Circular may be linked-to from your own Web pages, but must not otherwise be redistributed electronically.

    A form allowing access to any MPEC is at the bottom of this page.


    Read MPEC 2019-A160 Read MPEC 2019-A162


    M.P.E.C. 2019-A161                               Issued 2019 Jan. 10, 15:48 UT
    
         The Minor Planet Electronic Circulars contain information on unusual
             minor planets and routine data on comets.  They are published
        on behalf of Division F of the International Astronomical Union by the
              Minor Planet Center, Smithsonian Astrophysical Observatory,
                              Cambridge, MA 02138, U.S.A.
    
                 Prepared using the Tamkin Foundation Computer Network
    
                                  MPC@CFA.HARVARD.EDU
                URL https://www.minorplanetcenter.net/    ISSN 1523-6714
    
                                       2019 AV7
    
    Observations:
         K19A07V  C2019 01 06.52900709 57 41.348+38 02 09.97         19.9 GVEA161F51
         K19A07V  C2019 01 06.54118109 57 42.231+38 06 41.30         20.1 GVEA161F51
         K19A07V  C2019 01 06.56566509 57 43.960+38 15 45.31         20.1 GVEA161F51
         K19A07V* C2019 01 09.48410 10 04 15.277+54 22 35.38         20.2 wUEA161F51
         K19A07V  C2019 01 09.49772 10 04 16.509+54 26 33.40         20.5 wUEA161F51
         K19A07V  C2019 01 09.52507 10 04 18.922+54 34 28.61         20.7 wUEA161F51
         K19A07V pC2019 01 10.16297810 05 48.93 +57 30 45.6          20.3 GVEA161L01
         K19A07V pC2019 01 10.17466710 05 50.18 +57 33 52.0          20.2 GVEA161L01
         K19A07V pC2019 01 10.17825210 05 50.74 +57 34 48.7          20.5 GVEA161L01
         K19A07V pC2019 01 10.18070010 05 50.90 +57 35 28.1          20.4 GVEA161L01
    
    Observer details:
    F51 Pan-STARRS 1, Haleakala.  Observers J. Bulger, K. Chambers, T. Lowe,
        E. Magnier, A. Schultz, M. Willman.  Measurers S. Chastel, M. Huber,
        Y. Ramanjooloo, R. Wainscoat, R. Weryk, K. Chambers, L. Denneau,
        J. Fairlamb, H. Flewelling, C.-C. Lin, E. Magnier.  1.8-m
        Ritchey-Chretien + CCD.
    L01 Visnjan Observatory, Tican.  Observers K. Korlevic, F. Valentine.
        Measurer K. Korlevic.  1.0-m f/2.9 reflector + CCD.
    
    Orbital elements:
    2019 AV7                                                 Earth MOID = 0.0636 AU
    Epoch 2019 Apr. 27.0 TT = JDT 2458600.5                 MPC
    M 166.71847              (2000.0)            P               Q
    n   0.88233772     Peri.  285.43115     +0.71434424     -0.46501887
    a   1.0765796      Node   104.96224     +0.63539461     +0.74413537
    e   0.0803096      Incl.   32.77186     -0.29323369     +0.47960401
    P   1.12           H   23.8           G   0.15           U   5
    Residuals in seconds of arc
    190106 F51  0.1-  0.0     190109 F51  0.0   0.0     190110 L01  0.8+  0.1-
    190106 F51  0.1+  0.0     190109 F51  0.0   0.4+    190110 L01  0.2-  0.5+
    190106 F51  0.1-  0.0     190110 L01  0.1+  0.6-
    190109 F51  0.1-  0.4-    190110 L01  0.4-  0.1+
    
    Ephemeris:
    2019 AV7                 a,e,i = 1.08, 0.08, 33                  q = 0.9901
    Date    TT    R. A. (2000) Decl.     Delta      r     Elong.  Phase     V
    2018 12 11    09 21 02.5 -45 08 28   0.2456  1.0202    91.3    74.8    23.4
    ...
    2018 12 26    09 38 52.8 -22 48 05   0.1241  1.0375   112.6    61.0    21.5
    ...
    2019 01 03    09 51 05.9 +15 08 19   0.08549 1.0476   137.2    39.6    20.1
    ...
    2019 01 09    10 03 01.9 +51 58 29   0.09627 1.0555   136.7    39.7    20.4
    2019 01 10    10 05 27.7 +56 46 20   0.1014  1.0568   134.4    41.7    20.6
    2019 01 11    10 08 05.2 +61 04 07   0.1071  1.0581   132.0    43.7    20.8
    ...
    2019 01 17    10 31 23.6 +78 22 02   0.1504  1.0661   119.6    53.3    21.8
    ...
    2019 01 25    13 45 28.9 +88 16 31   0.2180  1.0768   109.4    59.5    22.8
    ...
    2019 02 09    21 37 34.6 +84 14 15   0.3465  1.0964    99.2    62.7    23.9
    
    A. U. Tomatic                (C) Copyright 2019 MPC           M.P.E.C. 2019-A161
    

    Read MPEC 2019-A160 Read MPEC 2019-A162


    MPEC number:

    Enter an MPEC number in one of the following forms:

    • 1997-B01 (the full form)
    • J97B01 (the packed version of the full form)
    • B01 (the abbreviated form)